Home > Weather > Langkawi > Past weeks

Flag for Malaysia Weather for the Past 2 Weeks in Langkawi, Malaysia

Now
81 °F

Thunderstorms. Mostly cloudy.


Feels Like: 87 °F
Forecast: 82 / 93 °F
Wind: 5 mph from West

Location: Langkawi

Current Time: May 4, 2016 at 10:24:24 PM

Latest Report: May 4, 2016 at 9:00 PM


Visibility: 2 mi

Pressure: 29.77 "Hg

Humidity: 89%

Dew Point: 77 °F

Location of LangkawiLocation

Historic Weather in Langkawi — Graph

°F

Langkawi Temperature Yesterday

Maximum temperature yesterday: 93 °F (at 11:00 AM)
Minimum temperature yesterday: 81 °F (at 6:00 AM)
Average temperature yesterday: 87 °F

High & Low Weather Summary for the Past Weeks

 TemperatureHumidityPressure
High95 °F (Apr 20, 1:00 PM)94% (Apr 19, 11:00 PM)29.86 "Hg (Apr 19, 11:00 PM)
Low79 °F (Apr 30, 4:00 AM)56% (Apr 20, 2:00 PM)29.68 "Hg (Apr 23, 6:00 PM)
Average87 °F78%29.78 "Hg
* Reported Apr 19 9:00 PM — May 4 9:00 PM, Langkawi, Weather by CustomWeather, © 2016

Note: Actual official high and low records may vary slightly from our data, if they occured in-between our weather recording intervals... More about our weather records

Advertising

Langkawi Weather History for the Previous 24 Hours

Scroll right to see more
 ConditionsComfort  
Time TempWeatherWind HumidityBarometerVisibility
9:00 PM
Wed, May 4
81 °FThunderstorms. Mostly cloudy.5 mph89%29.77 "Hg2 mi
8:00 PM88 °FPartly cloudy.3 mph79%29.74 "HgN/A
7:00 PM90 °FBroken clouds.5 mph75%29.71 "HgN/A
6:00 PM90 °FPartly sunny.6 mph71%29.68 "HgN/A
5:00 PM90 °FPartly sunny.8 mph75%29.68 "HgN/A
4:00 PM91 °FPartly sunny.7 mph71%29.71 "HgN/A
3:00 PM91 °FBroken clouds.7 mph71%29.74 "HgN/A
2:00 PM90 °FSprinkles. Broken clouds.6 mph75%29.77 "HgN/A
1:00 PM91 °FPartly sunny.6 mph71%29.80 "HgN/A
12:00 PM91 °FBroken clouds.6 mph71%29.83 "HgN/A
11:00 AM91 °FBroken clouds.3 mph71%29.83 "HgN/A
10:00 AM90 °FBroken clouds.2 mph75%29.83 "HgN/A
9:00 AM84 °FBroken clouds.1 mph84%29.80 "HgN/A
8:00 AM82 °FBroken clouds.1 mph89%29.77 "HgN/A
7:00 AM82 °FPartly cloudy.No wind89%29.77 "HgN/A
6:00 AM81 °FPartly cloudy.2 mph89%29.74 "HgN/A
5:00 AM81 °FPartly cloudy.3 mph89%29.74 "HgN/A
4:00 AM81 °FPartly cloudy.3 mph89%29.77 "HgN/A
3:00 AM81 °FPartly cloudy.3 mph94%29.77 "HgN/A
2:00 AM81 °FPartly cloudy.3 mph89%29.80 "HgN/A
1:00 AM82 °FThunderstorms. Partly cloudy.10 mph84%29.83 "HgN/A
12:00 AM84 °FThunderstorms. Partly cloudy.5 mph89%29.83 "HgN/A
11:00 PM
Tue, May 3
86 °FPartly cloudy.3 mph79%29.80 "HgN/A
10:00 PM88 °FThunderstorms. Partly cloudy.3 mph75%29.80 "HgN/A
Weather by CustomWeather, © 2016

See weather overviewHow to use our weather pages